Time,TemperatureF,DewpointF,PressureIn,WindDirection,WindDirectionDegrees,WindSpeedMPH,WindSpeedGustMPH,Humidity,HourlyPrecipIn,Conditions,Clouds,dailyrainin,SolarRadiationWatts/m^2,SoftwareType,DateUTC
2013-02-01 00:01:00,37.0,34.0,-100.00,SSW,208,5.0,6.0,89,0.00,,,0.00,1.000000,,2013-02-01 08:01:00,
2013-02-01 00:32:00,34.0,32.0,-100.00,SW,223,2.0,5.0,92,0.00,,,0.00,1.000000,,2013-02-01 08:32:00,
2013-02-01 00:42:00,34.0,32.0,-100.00,SW,223,2.0,5.0,92,0.00,,,0.00,1.000000,,2013-02-01 08:42:00,
2013-02-01 00:52:00,34.0,32.0,-100.00,SW,223,2.0,5.0,92,0.00,,,0.00,1.000000,,2013-02-01 08:52:00,
2013-02-01 01:01:00,34.0,32.0,-100.00,SW,223,2.0,5.0,92,0.00,,,0.00,1.000000,,2013-02-01 09:01:00,
2013-02-01 01:32:00,33.0,31.0,-100.00,SSW,211,3.0,6.0,93,0.00,,,0.00,1.000000,,2013-02-01 09:32:00,
2013-02-01 01:42:00,33.0,31.0,-100.00,SSW,211,3.0,6.0,93,0.00,,,0.00,1.000000,,2013-02-01 09:42:00,
2013-02-01 01:52:00,33.0,31.0,-100.00,SSW,211,3.0,6.0,93,0.00,,,0.00,1.000000,,2013-02-01 09:52:00,
2013-02-01 02:01:00,33.0,31.0,-100.00,SSW,211,3.0,6.0,93,0.00,,,0.00,1.000000,,2013-02-01 10:01:00,
2013-02-01 02:32:00,31.0,30.0,-100.00,South,190,2.0,7.0,95,0.00,,,0.00,1.000000,,2013-02-01 10:32:00,
2013-02-01 02:43:00,31.0,30.0,-100.00,South,190,2.0,7.0,95,0.00,,,0.00,1.000000,,2013-02-01 10:43:00,
2013-02-01 02:53:00,31.0,30.0,-100.00,South,190,2.0,7.0,95,0.00,,,0.00,1.000000,,2013-02-01 10:53:00,
2013-02-01 03:01:00,31.0,30.0,-100.00,South,190,2.0,7.0,95,0.00,,,0.00,1.000000,,2013-02-01 11:01:00,
2013-02-01 03:32:00,29.0,28.0,-100.00,SSW,208,2.0,4.0,96,0.00,,,-99.99,1.000000,,2013-02-01 11:32:00,
2013-02-01 03:42:00,29.0,28.0,-100.00,SSW,208,2.0,4.0,96,0.00,,,-99.99,1.000000,,2013-02-01 11:42:00,
2013-02-01 03:53:00,29.0,28.0,-100.00,SSW,208,2.0,4.0,96,0.00,,,-99.99,1.000000,,2013-02-01 11:53:00,
2013-02-01 04:02:00,29.0,28.0,-100.00,SSW,208,2.0,4.0,96,0.00,,,-99.99,1.000000,,2013-02-01 12:02:00,
2013-02-01 04:32:00,27.0,26.0,-100.00,North,353,1.0,4.0,96,0.00,,,0.00,1.000000,,2013-02-01 12:32:00,
2013-02-01 04:42:00,27.0,26.0,-100.00,North,353,1.0,4.0,96,0.00,,,0.00,1.000000,,2013-02-01 12:42:00,
2013-02-01 04:52:00,27.0,26.0,-100.00,North,353,1.0,4.0,96,0.00,,,0.00,1.000000,,2013-02-01 12:52:00,
2013-02-01 05:02:00,27.0,26.0,-100.00,North,353,1.0,4.0,96,0.00,,,0.00,1.000000,,2013-02-01 13:02:00,
2013-02-01 05:33:00,27.0,26.0,-100.00,SW,215,1.0,4.0,97,0.00,,,-99.99,1.000000,,2013-02-01 13:33:00,
2013-02-01 05:42:00,27.0,26.0,-100.00,SW,215,1.0,4.0,97,0.00,,,-99.99,1.000000,,2013-02-01 13:42:00,
2013-02-01 05:53:00,27.0,26.0,-100.00,SW,215,1.0,4.0,97,0.00,,,-99.99,1.000000,,2013-02-01 13:53:00,
2013-02-01 06:02:00,27.0,26.0,-100.00,SW,215,1.0,4.0,97,0.00,,,-99.99,1.000000,,2013-02-01 14:02:00,
2013-02-01 06:32:00,26.0,25.0,-100.00,North,11,2.0,4.0,97,0.00,,,0.00,1.000000,,2013-02-01 14:32:00,
2013-02-01 06:42:00,26.0,25.0,-100.00,North,11,2.0,4.0,97,0.00,,,0.00,1.000000,,2013-02-01 14:42:00,
2013-02-01 06:52:00,26.0,25.0,-100.00,North,11,2.0,4.0,97,0.00,,,0.00,1.000000,,2013-02-01 14:52:00,
2013-02-01 07:02:00,26.0,25.0,-100.00,North,11,2.0,4.0,97,0.00,,,0.00,1.000000,,2013-02-01 15:02:00,
2013-02-01 07:33:00,25.0,24.0,-100.00,South,191,0.0,3.0,97,0.00,,,0.00,1.000000,,2013-02-01 15:33:00,
2013-02-01 07:42:00,25.0,24.0,-100.00,South,191,0.0,3.0,97,0.00,,,0.00,1.000000,,2013-02-01 15:42:00,
2013-02-01 07:52:00,25.0,24.0,-100.00,South,191,0.0,3.0,97,0.00,,,0.00,1.000000,,2013-02-01 15:52:00,
2013-02-01 08:02:00,25.0,24.0,-100.00,South,191,0.0,3.0,97,0.00,,,0.00,1.000000,,2013-02-01 16:02:00,
2013-02-01 08:33:00,24.0,23.0,-100.00,SW,220,2.0,3.0,95,0.00,,,0.00,12.000000,,2013-02-01 16:33:00,
2013-02-01 08:43:00,24.0,23.0,-100.00,SW,220,2.0,3.0,95,0.00,,,0.00,12.000000,,2013-02-01 16:43:00,
2013-02-01 08:52:00,24.0,23.0,-100.00,SW,220,2.0,3.0,95,0.00,,,0.00,12.000000,,2013-02-01 16:52:00,
2013-02-01 09:02:00,24.0,23.0,-100.00,SW,220,2.0,3.0,95,0.00,,,0.00,12.000000,,2013-02-01 17:02:00,
2013-02-01 09:32:00,32.0,31.0,-100.00,East,90,2.0,4.0,96,0.00,,,0.00,113.000000,,2013-02-01 17:32:00,
2013-02-01 09:42:00,32.0,31.0,-100.00,East,90,2.0,4.0,96,0.00,,,0.00,113.000000,,2013-02-01 17:42:00,
2013-02-01 09:53:00,32.0,31.0,-100.00,East,90,2.0,4.0,96,0.00,,,0.00,113.000000,,2013-02-01 17:53:00,
2013-02-01 10:02:00,32.0,31.0,-100.00,East,90,2.0,4.0,96,0.00,,,0.00,113.000000,,2013-02-01 18:02:00,
2013-02-01 10:32:00,38.0,34.0,-100.00,ENE,70,4.0,5.0,84,0.00,,,0.00,313.000000,,2013-02-01 18:32:00,
2013-02-01 10:42:00,38.0,34.0,-100.00,ENE,70,4.0,5.0,84,0.00,,,0.00,313.000000,,2013-02-01 18:42:00,
2013-02-01 10:53:00,38.0,34.0,-100.00,ENE,70,4.0,5.0,84,0.00,,,0.00,313.000000,,2013-02-01 18:53:00,
2013-02-01 11:02:00,38.0,34.0,-100.00,ENE,70,4.0,5.0,84,0.00,,,0.00,313.000000,,2013-02-01 19:02:00,
2013-02-01 11:32:00,43.0,35.0,-100.00,West,264,2.0,5.0,74,0.00,,,0.00,345.000000,,2013-02-01 19:32:00,
2013-02-01 11:42:00,43.0,35.0,-100.00,West,264,2.0,5.0,74,0.00,,,0.00,345.000000,,2013-02-01 19:42:00,
2013-02-01 11:52:00,43.0,35.0,-100.00,West,264,2.0,5.0,74,0.00,,,0.00,345.000000,,2013-02-01 19:52:00,
2013-02-01 12:02:00,43.0,35.0,-100.00,West,264,2.0,5.0,74,0.00,,,0.00,345.000000,,2013-02-01 20:02:00,
2013-02-01 12:32:00,47.0,37.0,-100.00,ENE,73,3.0,5.0,67,0.00,,,-99.99,439.000000,,2013-02-01 20:32:00,
2013-02-01 12:42:00,47.0,37.0,-100.00,ENE,73,3.0,5.0,67,0.00,,,-99.99,439.000000,,2013-02-01 20:42:00,
2013-02-01 12:52:00,47.0,37.0,-100.00,ENE,73,3.0,5.0,67,0.00,,,-99.99,439.000000,,2013-02-01 20:52:00,
2013-02-01 13:01:00,47.0,37.0,-100.00,ENE,73,3.0,5.0,67,0.00,,,-99.99,439.000000,,2013-02-01 21:01:00,
2013-02-01 13:32:00,50.0,37.0,-100.00,WNW,289,3.0,6.0,60,0.00,,,0.00,470.000000,,2013-02-01 21:32:00,
2013-02-01 13:42:00,50.0,37.0,-100.00,WNW,289,3.0,6.0,60,0.00,,,0.00,470.000000,,2013-02-01 21:42:00,
2013-02-01 13:52:00,50.0,37.0,-100.00,WNW,289,3.0,6.0,60,0.00,,,0.00,470.000000,,2013-02-01 21:52:00,
2013-02-01 14:02:00,50.0,37.0,-100.00,WNW,289,3.0,6.0,60,0.00,,,0.00,470.000000,,2013-02-01 22:02:00,
2013-02-01 14:32:00,51.0,35.0,-100.00,ENE,57,3.0,6.0,54,0.00,,,0.00,416.000000,,2013-02-01 22:32:00,
2013-02-01 14:42:00,51.0,35.0,-100.00,ENE,57,3.0,6.0,54,0.00,,,0.00,416.000000,,2013-02-01 22:42:00,
2013-02-01 14:52:00,51.0,35.0,-100.00,ENE,57,3.0,6.0,54,0.00,,,0.00,416.000000,,2013-02-01 22:52:00,
2013-02-01 15:01:00,51.0,35.0,-100.00,ENE,57,3.0,6.0,54,0.00,,,0.00,416.000000,,2013-02-01 23:01:00,
2013-02-01 15:32:00,54.0,37.0,-100.00,NNE,19,2.0,6.0,52,0.00,,,0.00,323.000000,,2013-02-01 23:32:00,
2013-02-01 15:42:00,54.0,37.0,-100.00,NNE,19,2.0,6.0,52,0.00,,,0.00,323.000000,,2013-02-01 23:42:00,
2013-02-01 15:52:00,54.0,37.0,-100.00,NNE,19,2.0,6.0,52,0.00,,,0.00,323.000000,,2013-02-01 23:52:00,
2013-02-01 16:01:00,54.0,37.0,-100.00,NNE,19,2.0,6.0,52,0.00,,,0.00,323.000000,,2013-02-02 00:01:00,
2013-02-01 16:32:00,52.0,36.0,-100.00,North,353,1.0,5.0,54,0.00,,,0.00,163.000000,,2013-02-02 00:32:00,
2013-02-01 16:42:00,52.0,36.0,-100.00,North,353,1.0,5.0,54,0.00,,,0.00,163.000000,,2013-02-02 00:42:00,
2013-02-01 16:52:00,52.0,36.0,-100.00,North,353,1.0,5.0,54,0.00,,,0.00,163.000000,,2013-02-02 00:52:00,
2013-02-01 17:01:00,52.0,36.0,-100.00,North,353,1.0,5.0,54,0.00,,,0.00,163.000000,,2013-02-02 01:01:00,
2013-02-01 17:32:00,43.0,34.0,-100.00,SW,217,1.0,4.0,71,0.00,,,0.00,25.000000,,2013-02-02 01:32:00,
2013-02-01 17:42:00,43.0,34.0,-100.00,SW,217,1.0,4.0,71,0.00,,,0.00,25.000000,,2013-02-02 01:42:00,
2013-02-01 17:52:00,43.0,34.0,-100.00,SW,217,1.0,4.0,71,0.00,,,0.00,25.000000,,2013-02-02 01:52:00,
2013-02-01 18:01:00,43.0,34.0,-100.00,SW,217,1.0,4.0,71,0.00,,,0.00,25.000000,,2013-02-02 02:01:00,
2013-02-01 18:32:00,40.0,34.0,-100.00,SW,215,2.0,3.0,78,0.00,,,0.00,3.000000,,2013-02-02 02:32:00,
2013-02-01 18:42:00,40.0,34.0,-100.00,SW,215,2.0,3.0,78,0.00,,,0.00,3.000000,,2013-02-02 02:42:00,
2013-02-01 18:52:00,40.0,34.0,-100.00,SW,215,2.0,3.0,78,0.00,,,0.00,3.000000,,2013-02-02 02:52:00,
2013-02-01 19:02:00,40.0,34.0,-100.00,SW,215,2.0,3.0,78,0.00,,,0.00,3.000000,,2013-02-02 03:02:00,
2013-02-01 19:32:00,38.0,33.0,-100.00,SW,219,2.0,4.0,83,0.00,,,0.00,1.000000,,2013-02-02 03:32:00,
2013-02-01 19:42:00,38.0,33.0,-100.00,SW,219,2.0,4.0,83,0.00,,,0.00,1.000000,,2013-02-02 03:42:00,
2013-02-01 19:52:00,38.0,33.0,-100.00,SW,219,2.0,4.0,83,0.00,,,0.00,1.000000,,2013-02-02 03:52:00,
2013-02-01 20:01:00,38.0,33.0,-100.00,SW,219,2.0,4.0,83,0.00,,,0.00,1.000000,,2013-02-02 04:01:00,
2013-02-01 20:32:00,35.0,31.0,-100.00,SW,220,1.0,4.0,86,0.00,,,0.00,1.000000,,2013-02-02 04:32:00,
2013-02-01 20:42:00,35.0,31.0,-100.00,SW,220,1.0,4.0,86,0.00,,,0.00,1.000000,,2013-02-02 04:42:00,
2013-02-01 20:52:00,35.0,31.0,-100.00,SW,220,1.0,4.0,86,0.00,,,0.00,1.000000,,2013-02-02 04:52:00,
2013-02-01 21:02:00,35.0,31.0,-100.00,SW,220,1.0,4.0,86,0.00,,,0.00,1.000000,,2013-02-02 05:02:00,
2013-02-01 21:33:00,35.0,32.0,-100.00,South,178,2.0,4.0,89,0.00,,,-99.99,1.000000,,2013-02-02 05:33:00,
2013-02-01 21:42:00,35.0,32.0,-100.00,South,178,2.0,4.0,89,0.00,,,-99.99,1.000000,,2013-02-02 05:42:00,
2013-02-01 21:52:00,35.0,32.0,-100.00,South,178,2.0,4.0,89,0.00,,,-99.99,1.000000,,2013-02-02 05:52:00,
2013-02-01 22:02:00,35.0,32.0,-100.00,South,178,2.0,4.0,89,0.00,,,-99.99,1.000000,,2013-02-02 06:02:00,
2013-02-01 22:32:00,34.0,31.0,-100.00,SSW,201,3.0,5.0,88,0.00,,,0.00,1.000000,,2013-02-02 06:32:00,
2013-02-01 22:42:00,34.0,31.0,-100.00,SSW,201,3.0,5.0,88,0.00,,,0.00,1.000000,,2013-02-02 06:42:00,
2013-02-01 22:52:00,34.0,31.0,-100.00,SSW,201,3.0,5.0,88,0.00,,,0.00,1.000000,,2013-02-02 06:52:00,
2013-02-01 23:02:00,34.0,31.0,-100.00,SSW,201,3.0,5.0,88,0.00,,,0.00,1.000000,,2013-02-02 07:02:00,
2013-02-01 23:32:00,33.0,31.0,-100.00,SW,214,1.0,5.0,91,0.00,,,0.00,1.000000,,2013-02-02 07:32:00,
2013-02-01 23:42:00,33.0,31.0,-100.00,SW,214,1.0,5.0,91,0.00,,,0.00,1.000000,,2013-02-02 07:42:00,
2013-02-01 23:52:00,33.0,31.0,-100.00,SW,214,1.0,5.0,91,0.00,,,0.00,1.000000,,2013-02-02 07:52:00,